SLG Weather Reports


Display with metric or nautical units.
time (UTC)temp
F
wind
direction
speed
MPH
gust
MPH
rain 1hr
in
rain 24hr
in
rain mn
in
humidity
%
barometer
mb
20260506223209 46 228 5.0 0.0 0.00 0.00 0.00 91 1008.5
20260506213209 47 239 6.0 0.0 0.00 0.00 0.20 91 1008.1
20260506210210 47 249 8.0 0.0 0.00 0.00 0.20 91 1008.1
20260506203210 47 273 9.0 0.0 0.00 0.00 0.20 91 1008.0
20260506200210 47 250 8.0 0.0 0.00 0.00 0.20 90 1007.8
20260506193215 47 282 9.0 0.0 0.00 0.00 0.20 90 1007.4
20260506190211 48 300 8.0 0.0 0.00 0.00 0.20 90 1007.1
20260506183209 48 286 8.0 0.0 0.00 0.00 0.20 90 1006.7
20260506180216 49 254 11.0 0.0 0.00 0.00 0.20 91 1006.6
20260506173210 49 232 13.0 0.0 0.00 0.00 0.20 91 1006.3
20260506170215 49 289 0.0 0.0 0.00 0.00 0.20 90 1005.7
20260506163210 49 284 9.0 0.0 0.00 0.00 0.20 90 1005.8
20260506160210 49 273 9.0 0.0 0.00 0.00 0.20 89 1005.4
20260506153210 50 304 14.0 0.0 0.00 0.00 0.17 87 1005.3
20260506150210 52 325 18.0 0.0 0.00 0.00 0.13 84 1004.7
20260506143210 58 257 21.0 0.0 0.00 0.00 0.05 76 1003.9
20260506140210 62 271 7.0 0.0 0.00 0.00 0.00 63 1003.2
20260506133211 62 275 4.0 0.0 0.00 0.00 0.00 62 1003.2
20260506130211 63 232 2.0 0.0 0.00 0.00 0.00 62 1003.2
20260506123210 63 303 4.0 0.0 0.00 0.00 0.00 60 1003.2
20260506120210 63 138 3.0 0.0 0.00 0.00 0.00 59 1003.0
20260506113217 62 113 2.0 0.0 0.00 0.00 0.00 61 1003.2
20260506110210 62 61 3.0 0.0 0.00 0.00 0.00 67 1003.5
20260506100213 58 38 3.0 0.0 0.00 0.00 0.00 74 1003.7
20260506093211 58 238 0.0 0.0 0.00 0.00 0.00 73 1004.0
20260506090211 58 275 3.0 0.0 0.00 0.00 0.00 75 1004.1
20260506083211 56 322 2.0 0.0 0.00 0.00 0.00 82 1003.9
20260506080212 55 318 3.0 0.0 0.00 0.00 0.00 86 1003.9
20260506073211 53 11 1.0 0.0 0.00 0.00 0.00 89 1004.2
20260506070212 52 5 2.0 0.0 0.00 0.00 0.00 91 1004.4
20260506060210 49 9 2.0 0.0 0.00 0.00 0.00 91 1004.0
20260506050211 47 194 0.0 0.0 0.00 0.00 0.00 89 1004.3
20260506043211 48 194 0.0 0.0 0.00 0.00 0.00 88 1004.5
20260506040211 48 194 0.0 0.0 0.00 0.00 0.00 88 1004.7
20260506033211 49 194 0.0 0.0 0.00 0.00 0.00 88 1004.9
20260506030212 49 194 0.0 0.0 0.00 0.00 0.00 88 1005.2
20260506023211 49 199 0.0 0.0 0.00 0.00 0.00 88 1005.4
20260506020212 49 198 0.0 0.0 0.00 0.00 0.00 88 1005.6
20260506013211 50 198 0.0 0.0 0.00 0.00 0.00 87 1005.8
20260506010212 50 199 5.0 0.0 0.00 0.00 0.00 87 1006.3
20260506003209 50 199 0.0 0.0 0.00 0.00 0.00 86 1006.1
20260506000211 50 199 1.0 0.0 0.00 0.00 0.00 86 1006.3
20260505233209 50 207 3.0 0.0 0.00 0.00 0.00 85 1006.5
20260505230209 51 188 5.0 0.0 0.00 0.00 0.00 84 1006.7